Location: S�tio Afonso Gruber
(26.1760°S, 49.5250°W)
Time: 21:38:27
(UTC+00:00)

YUBILEINY - Visible Passes

Search period start: 20 February 2024 00:00
Search period end: 01 March 2024 00:00
Orbit: 1478 x 1508 km, 82.5° (Epoch: 20 February)

Date Brightness Start Highest point End Pass type
(mag) Time Alt. Az. Time Alt. Az. Time Alt. Az.
20 Feb ? 03:43:47 10° S 03:47:07 27° S 03:47:07 27° S visible
21 Feb ? 02:54:40 10° S 02:57:42 23° SSE 02:57:42 23° SSE visible
21 Feb ? 04:52:03 10° SSW 04:53:35 15° SW 04:53:35 15° SW visible
22 Feb ? 02:06:42 10° SSE 02:08:17 14° SE 02:08:17 14° SE visible
22 Feb ? 04:01:27 10° SSW 04:04:10 23° SSW 04:04:10 23° SSW visible
23 Feb ? 03:11:46 10° S 03:14:47 24° S 03:14:47 24° S visible
24 Feb ? 02:22:55 10° SSE 02:25:24 19° SSE 02:25:24 19° SSE visible
24 Feb ? 04:19:34 10° SSW 04:21:17 16° SSW 04:21:17 16° SSW visible
25 Feb ? 01:35:36 10° SE 01:36:01 11° SE 01:36:01 11° SE visible
25 Feb ? 03:29:17 10° S 03:31:54 22° SSW 03:31:54 22° SSW visible
26 Feb ? 02:39:50 10° S 02:42:33 22° S 02:42:33 22° S visible
26 Feb ? 04:38:20 10° SW 04:38:26 10° SW 04:38:26 10° SW visible
27 Feb ? 01:51:18 10° SSE 01:53:12 16° SSE 01:53:12 16° SSE visible
27 Feb ? 03:47:11 10° SSW 03:49:05 18° SSW 03:49:05 18° SSW visible
28 Feb ? 02:57:11 10° S 02:59:45 22° S 02:59:45 22° S visible
29 Feb ? 02:07:58 10° S 02:10:25 20° SSE 02:10:25 20° SSE visible
29 Feb ? 04:05:38 10° SSW 04:06:18 12° SW 04:06:18 12° SW visible
